This is the latest recevied weather packets stored in our database for station/object W0WC. If no packets are shown the sender has not sent any weather packets the latest 10 day(s).
| Time | Temp. | Humidity | Pressure | Rain* | Wind** | Luminosity | Snow |
|---|---|---|---|---|---|---|---|
| 1778179690 | 19.44° C | 42% | 1017.2 hPa | 0 mm | - | 824 W/m² | - |
| 1778179389 | 20° C | 43% | 1017.3 hPa | 0 mm | - | 850 W/m² | - |
| 1778179085 | 19.44° C | 44% | 1017.3 hPa | 0 mm | - | 831 W/m² | - |
| 1778178782 | 19.44° C | 42% | 1017.4 hPa | 0 mm | - | 818 W/m² | - |
| 1778178479 | 19.44° C | 40% | 1017.4 hPa | 0 mm | - | 816 W/m² | - |
| 1778178174 | 19.44° C | 43% | 1017.5 hPa | 0 mm | - | 818 W/m² | - |
| 1778177871 | 18.89° C | 44% | 1017.3 hPa | 0 mm | - | 838 W/m² | - |
| 1778177567 | 19.44° C | 41% | 1017.6 hPa | 0 mm | - | 834 W/m² | - |
| 1778177264 | 18.33° C | 43% | 1017.5 hPa | 0 mm | - | 863 W/m² | - |
| 1778176961 | 18.33° C | 40% | 1017.3 hPa | 0 mm | - | 819 W/m² | - |
| 1778176656 | 18.89° C | 40% | 1017.9 hPa | 0 mm | - | 814 W/m² | - |
| 1778176354 | 18.89° C | 41% | 1017.8 hPa | 0 mm | - | 809 W/m² | - |
| 1778176051 | 18.33° C | 43% | 1017.9 hPa | 0 mm | - | 802 W/m² | - |
| 1778175749 | 18.33° C | 41% | 1018 hPa | 0 mm | - | 801 W/m² | - |
| 1778175446 | 17.78° C | 41% | 1018 hPa | 0 mm | - | 795 W/m² | - |
| 1778175143 | 18.33° C | 44% | 1018.1 hPa | 0 mm | - | 788 W/m² | - |
| 1778174840 | 18.89° C | 39% | 1018.4 hPa | 0 mm | - | 787 W/m² | - |
| 1778174537 | 18.89° C | 42% | 1018.3 hPa | 0 mm | - | 782 W/m² | - |
| 1778174236 | 18.33° C | 42% | 1018.6 hPa | 0 mm | - | 783 W/m² | - |
| 1778173934 | 18.33° C | 41% | 1018.7 hPa | 0 mm | - | 781 W/m² | - |
| 1778173631 | 18.33° C | 42% | 1018.6 hPa | 0 mm | - | 637 W/m² | - |
| 1778173328 | 18.33° C | 41% | 1018.7 hPa | 0 mm | - | 761 W/m² | - |
| 1778173023 | 18.33° C | 41% | 1018.9 hPa | 0 mm | - | 759 W/m² | - |
| 1778172720 | 17.78° C | 40% | 1019 hPa | 0 mm | - | 752 W/m² | - |
| 1778172416 | 17.78° C | 40% | 1019 hPa | 0 mm | - | 745 W/m² | - |
* Rain latest hour (hover to see other rain measurements)
** Current wind speed in m/s (hover to see current wind gust speed)